Location: Unspecified
(0.0000°N, 0.0000°E)
Time: 07:17:42
(UTC+00:00)

HULIANWANG DIGUI-82 - Pass Details

Date: 15 November 2025
Orbit: 1167 x 1169 km, 86.5° (Epoch: 08 December)

Event Time Altitude Azimuth Distance (km) Brightness Sun altitude
Rises 04:57:01 0° 204° (SSW) 4,046 ? -11.3°
Reaches altitude 10° 05:00:10 10° 217° (SW) 3,081 ? -10.5°
Maximum altitude 05:05:47 25° 269° (W) 2,145 ? -9.2°
Drops below altitude 10° 05:11:26 10° 322° (NW) 3,072 ? -7.9°
Sets 05:14:36 0° 335° (NNW) 4,031 ? -7.1°
